Regional Weather Roundup
Issued by NWS Cleveland, OH

Home | Current Version | Previous Version | Text Only | Print | Product List | Glossary Off
Versions: 1 2 3 4 5 6 7 8 9 10 11 12 13 14 15 16 17 18 19 20 21 22 23 24 25 26 27 28 29 30 31 32 33 34 35 36 37 38 39 40 41 42 43 44 45 46 47 48 49 50

000
ASUS41 KCLE 250610
RWRCLE
OHIO REGIONAL WEATHER ROUNDUP
NATIONAL WEATHER SERVICE CLEVELAND, OH
200 AM EDT FRI APR 25 2014

NOTE: "FAIR" INDICATES FEW OR NO CLOUDS BELOW 12,000 FEET WITH NO
SIGNIFICANT WEATHER AND/OR OBSTRUCTIONS TO VISIBILITY.

OHZ001>008-015>018-024>027-034-035-043-044-250700-
   NORTHWEST OHIO

CITY           SKY/WX    TMP DP  RH WIND       PRES   REMARKS
DEFIANCE       FAIR      46  29  51 NE6       29.77F
FINDLAY        FAIR      50  29  44 SE9       29.76F
TOLEDO EXPRESS FAIR      45  28  51 E7        29.79F
TOLEDO EXEC    FAIR      45  31  58 NE6       29.80F
LIMA           FAIR      53  27  36 SE13      29.75F
$$

OHZ009>014-019>023-028>033-038-089-250700-
   NORTHEAST OHIO

CITY           SKY/WX    TMP DP  RH WIND       PRES   REMARKS
CLE-HOPKINS    MOCLDY    53  22  29 SE8       29.84F
CLE-LAKEFRONT  FAIR      53  21  28 SE10      29.80F
CUY CO. ARPT   NOT AVBL
LORAIN-ELYRIA  FAIR      52  25  35 S8        29.82F
ASHTABULA      FAIR      46  21  37 SE8       29.88F
AKRON-CANTON   FAIR      51  22  32 E5        29.84F
WOOSTER        FAIR      48  26  42 SE9       29.84F
MANSFIELD      FAIR      51  24  34 SE13      29.82F
YOUNGSTOWN     MOCLDY    49  22  34 SE8       29.87F
$$

OHZ042-051>053-060>062-070>072-077>081-250700-
  SOUTHWEST OHIO

CITY           SKY/WX    TMP DP  RH WIND       PRES   REMARKS
CINC-COVINGTON CLOUDY    60  25  26 SE13      29.73F
CINC-LUNKEN    MOCLDY    50  41  71 CALM      29.75F
HAMILTON       MOCLDY    58  31  35 E6        29.75F
DAYTON         MOCLDY    56  24  29 SE16      29.75F
WRIGHT-PAT AFB FAIR      56  23  27 E7        29.75F
DAYTON GENERAL MOCLDY    57  24  28 SE10      29.74F
WILMINGTON     FAIR      51  26  37 SE10      29.76F
$$

OHZ036-037-039>041-045>050-054>059-063>069-073>076-082>088-250700-
  CENTRAL AND SOUTHEAST OHIO

CITY           SKY/WX    TMP DP  RH WIND       PRES   REMARKS
COLUMBUS       CLOUDY    56  22  26 E13       29.80F
OSU AIRPORT    FAIR      55  21  26 SE12      29.80F
BOLTON FIELD   FAIR      52  28  40 E5        29.81F
RICKENBACK AFB FAIR      55  19  24 E7        29.80F
NEWARK         FAIR      50  25  37 NE3       29.82F
MARION         FAIR      52  24  33 SE12      29.80F
LANCASTER      FAIR      51  25  36 SE6       29.81F
ZANESVILLE     FAIR      49  23  36 E5        29.83F
NEW PHILLY     FAIR      51  21  30 SE5       29.85F
$$



USA.gov is the U.S. government's official web portal to all federal, state and local government web resources and services.